Vorticity
5 6 5 5 5 6 6 6 6 5 6 7 7 7 6 5 4 4 5 6 7 6 5 5 5 5 6 7 8 11 13 18 19 17 16 12 10 9 10 8 7 8 7 7 8 9 11 10 9 8 9 9 11 10 7 8 10 8 4 5 6 3 4 4 2 2 2 1 1 1 0 0 0 2 2 2 2 2 2 2 2 4 3 2 2 3 4 3
5 6 6 5 5 6 6 6 6 6 7 7 7 6 4 5 5 5 6 7 6 6 6 5 6 7 8 10 12 15 17 18 16 14 11 8 7 7 7 6 5 6 7 9 10 9 8 7 8 9 9 8 10 7 5 8 8 7 3 4 4 2 4 3 2 2 1 1 2 2 2 2 1 2 3 2 3 2 2 2 3 5 3 3 3 3 4 3
6 6 6 5 6 7 7 6 7 7 7 8 7 6 6 6 6 6 7 6 6 6 6 7 9 10 11 13 15 16 17 15 12 10 9 7 6 5 5 5 5 8 9 9 8 7 7 9 9 9 9 7 9 6 5 8 5 4 2 1 3 2 4 4 3 3 2 2 2 2 2 2 2 3 3 3 4 3 3 3 3 4 3 3 3 4 5 4
7 6 6 6 7 8 7 8 8 8 8 8 7 6 6 6 6 7 7 6 6 6 8 11 12 12 13 14 15 15 13 10 10 9 7 6 6 6 7 7 9 9 8 8 9 10 10 10 8 9 9 5 8 7 5 7 3 3 3 1 3 3 4 4 2 3 2 2 2 3 3 3 4 3 3 3 4 3 3 5 4 4 4 4 4 5 6 5
7 6 6 7 8 9 9 9 9 9 8 7 6 6 6 7 7 7 7 7 7 10 13 13 13 12 14 16 15 13 9 7 9 7 5 6 7 8 9 9 9 9 9 10 11 11 8 9 8 6 8 5 6 6 4 5 3 3 4 2 2 2 3 4 3 4 4 3 3 4 5 4 4 4 4 4 6 5 5 5 5 4 4 4 5 6 7 6
6 6 7 8 9 9 10 10 10 9 8 7 6 7 7 7 8 7 8 10 12 16 15 12 13 14 16 16 12 10 7 7 8 6 7 9 9 10 9 9 9 10 10 9 8 9 6 7 9 5 7 5 3 4 3 4 2 2 4 4 3 3 4 4 5 4 4 4 4 5 5 5 4 4 4 5 5 5 5 6 5 5 5 6 7 7 7 7
7 8 8 9 9 10 10 12 11 8 7 7 7 8 8 8 8 9 12 15 16 15 12 12 14 15 14 11 7 6 7 8 7 8 9 10 10 10 9 9 9 9 9 8 6 9 8 4 6 6 5 4 3 3 2 3 3 3 4 5 5 5 5 5 4 4 5 5 5 5 6 6 6 6 6 6 6 6 7 7 7 7 8 8 8 7 6 7
8 8 9 9 9 9 10 11 9 7 6 6 7 8 8 9 11 14 16 16 15 12 12 14 13 12 9 7 6 6 8 9 8 9 9 9 10 9 9 8 8 7 8 9 6 8 9 4 5 5 3 3 4 3 3 5 5 4 4 5 5 5 5 5 5 6 6 7 7 8 10 9 8 8 8 7 6 7 8 8 9 10 9 8 7 7 8 9
8 8 9 9 10 10 10 9 7 7 6 7 8 8 9 12 15 17 16 13 12 12 12 12 11 10 8 8 8 8 9 9 9 9 9 10 9 8 8 7 8 8 7 8 5 5 6 4 4 4 3 3 4 5 5 5 5 5 5 5 6 6 6 7 8 9 9 9 9 9 11 10 8 6 5 5 6 6 7 8 8 7 7 7 8 9 10 10
8 9 9 9 11 11 8 7 8 9 10 9 8 10 14 17 17 14 12 11 11 11 11 10 9 9 9 9 9 9 10 9 9 10 9 9 8 7 8 7 8 8 6 6 4 3 3 3 4 4 4 5 6 6 5 5 6 7 7 7 8 8 8 9 9 9 8 8 7 8 10 8 5 4 4 6 7 7 9 10 9 9 10 10 10 10 10 10
11 11 10 8 9 10 9 11 15 15 11 10 12 16 17 16 13 11 11 10 10 11 11 10 10 10 9 9 10 10 9 9 8 8 8 7 8 7 7 6 6 5 4 4 4 4 3 4 5 5 6 7 6 6 7 8 8 8 8 8 8 6 5 6 6 6 6 6 5 7 9 7 5 5 7 8 9 11 12 10 10 10 9 8 8 9 9 10
17 17 16 14 15 16 18 20 19 14 11 14 16 16 15 12 11 10 10 10 11 12 11 10 10 10 10 9 10 8 7 7 7 8 8 7 7 7 7 6 5 4 3 4 6 6 6 6 6 6 5 6 6 6 7 6 5 6 7 7 9 8 5 5 6 6 5 5 3 4 5 5 8 10 9 9 9 10 9 7 6 6 5 6 7 8 8 9
24 25 26 25 25 23 21 19 15 13 14 15 14 12 11 10 10 10 12 13 12 11 10 10 10 9 8 7 7 6 6 6 7 7 7 7 6 5 6 6 5 6 5 5 6 7 6 6 6 5 5 5 4 4 4 4 6 7 6 5 6 8 7 6 5 6 6 6 6 7 5 3 7 12 12 12 10 8 8 8 8 8 9 10 9 9 9 8
25 25 25 23 21 18 16 15 14 14 14 12 11 11 10 11 12 13 14 13 11 10 9 8 7 6 6 5 6 7 6 6 7 6 6 6 5 5 4 5 5 5 5 5 5 5 5 5 5 4 4 4 4 5 6 6 6 5 5 5 4 6 7 7 6 6 9 10 9 9 8 6 4 6 9 10 10 8 7 8 9 10 11 11 11 12 12 11
17 16 16 15 14 14 13 13 12 12 11 11 12 12 12 14 14 13 11 9 8 7 6 5 5 5 6 7 8 7 6 5 5 3 4 4 4 5 4 4 4 3 4 5 4 4 4 3 3 3 5 6 6 6 4 3 5 5 7 8 8 7 6 9 10 7 5 7 9 10 8 8 5 3 3 4 6 7 8 8 9 10 10 11 12 13 14 15
13 12 12 12 12 11 11 11 11 11 12 13 13 13 13 12 9 8 6 5 5 4 4 5 6 7 6 7 6 5 4 4 4 4 3 3 4 4 4 4 3 2 2 4 5 4 5 5 5 6 6 4 3 3 5 9 10 10 9 7 7 8 4 4 8 8 5 5 7 10 8 6 6 6 6 7 8 11 14 15 15 16 16 17 18 17 17 16
11 11 11 11 11 12 12 13 13 13 13 13 11 10 8 6 5 5 5 5 5 5 7 7 6 6 5 5 5 5 5 5 5 4 3 2 3 3 2 2 3 2 1 3 4 4 5 6 5 4 4 4 5 7 10 10 6 4 6 4 3 9 8 2 3 6 8 9 7 8 10 10 10 9 8 9 12 15 17 17 18 18 18 19 21 21 20 18
13 13 13 13 13 13 13 13 12 11 10 8 7 6 5 5 6 6 7 7 7 7 7 6 7 6 4 4 5 4 4 4 3 3 3 2 2 2 1 2 5 4 3 4 4 4 6 6 6 10 12 11 9 8 7 6 7 6 6 5 1 4 10 9 6 4 5 9 10 10 10 10 12 13 13 14 14 14 13 14 15 15 16 17 19 21 23 24
15 14 14 14 12 12 11 9 9 7 7 7 7 7 7 7 7 7 7 6 7 7 6 6 7 7 4 4 4 2 1 1 1 2 2 3 4 5 5 4 5 5 5 8 9 9 10 9 10 14 13 7 4 4 4 6 9 7 7 10 6 4 11 12 11 11 9 8 10 11 10 11 12 14 19 21 20 18 17 17 18 17 18 17 18 19 21 24
12 12 10 10 9 8 7 7 7 7 8 8 8 7 6 6 7 6 5 6 6 5 5 4 3 3 2 3 3 2 3 2 3 5 3 4 5 5 6 5 5 8 9 10 10 9 9 8 7 7 5 4 5 5 5 7 7 5 7 9 9 9 11 12 11 11 11 10 12 14 15 17 17 18 20 20 19 19 19 18 16 15 15 14 14 15 16 16
8 8 7 7 7 6 7 7 7 7 7 6 6 6 6 7 6 5 4 4 4 3 2 1 1 2 2 3 3 2 4 4 4 5 4 4 5 5 8 9 9 11 11 8 6 5 6 5 4 4 4 4 5 5 5 6 6 8 9 8 11 11 8 11 15 14 13 13 15 18 19 17 17 18 15 13 12 10 10 9 6 5 6 8 8 8 10 10
7 6 7 7 8 8 8 8 7 7 7 6 7 6 6 6 4 3 3 2 2 2 1 1 1 3 2 4 5 4 4 4 4 5 5 6 8 9 10 10 9 8 7 6 5 4 3 3 4 4 5 4 5 7 9 9 10 12 11 11 12 12 8 6 10 15 15 15 13 11 11 11 11 9 6 6 5 3 6 4 1 1 1 5 6 5 6 6
8 8 9 8 8 9 7 7 7 7 7 6 5 4 3 3 2 1 2 1 2 2 3 4 3 3 3 4 5 5 4 5 8 8 9 9 9 9 8 6 6 4 5 6 4 2 1 2 3 3 3 4 6 9 13 16 15 13 12 14 12 13 15 11 8 9 9 11 8 3 4 6 4 3 4 5 3 5 9 4 4 6 1 4 8 5 3 4
9 8 8 7 7 6 5 5 4 4 3 2 2 1 1 1 1 1 1 2 2 3 5 6 7 4 3 5 5 5 6 9 11 9 9 8 5 7 6 3 4 3 3 4 3 2 3 3 3 4 5 8 10 12 15 14 11 11 13 14 11 11 13 13 12 8 5 6 5 2 4 6 6 6 7 8 7 10 9 5 9 9 4 6 8 5 3 4
5 4 4 4 3 3 3 2 2 2 2 2 2 2 2 2 2 1 1 3 4 5 4 5 7 4 3 7 9 8 8 9 8 5 6 5 2 4 5 3 4 2 1 3 4 3 5 4 5 9 12 15 17 15 13 9 7 9 9 8 10 9 8 8 9 6 4 4 4 6 7 8 10 7 6 8 9 9 9 9 8 6 7 10 8 6 7 7
3 3 3 3 3 3 3 2 3 3 3 4 4 4 5 5 6 5 3 5 6 3 2 4 8 8 8 9 9 8 6 6 6 2 4 5 1 2 3 3 4 2 0 4 5 5 7 9 13 16 17 17 16 13 10 8 8 7 5 4 5 6 5 5 5 6 6 6 6 10 8 7 10 9 8 9 7 7 7 5 5 9 13 12 8 7 8 8
2 3 3 2 3 2 2 2 3 4 4 5 6 6 5 4 6 8 7 7 6 3 5 9 10 9 9 6 5 8 5 4 5 2 2 4 1 1 2 3 6 5 5 8 9 11 13 16 18 17 16 13 11 8 5 5 7 4 2 2 2 5 7 6 7 7 8 9 8 10 8 5 14 17 10 8 8 5 5 8 12 14 12 8 5 6 7 6
2 2 3 3 4 4 4 5 5 5 4 3 4 4 4 4 4 5 6 6 7 8 10 10 8 6 7 7 5 6 4 2 2 2 4 5 2 3 4 5 8 8 9 11 12 15 16 16 15 13 12 11 7 5 4 4 5 3 3 5 6 9 8 7 8 6 7 10 7 8 7 7 17 17 6 7 8 3 10 19 13 8 7 4 4 6 4 -2
3 4 4 5 5 5 5 6 5 4 2 2 2 1 2 2 3 6 8 8 10 11 11 8 7 5 4 6 4 3 3 2 1 1 2 3 4 6 8 9 11 11 12 15 18 18 16 14 13 10 9 7 4 2 3 4 5 5 5 6 8 7 6 8 7 5 7 9 8 7 9 11 16 15 7 5 6 10 21 18 3 1 4 -2 1 3 -5 -8
5 5 6 5 5 4 3 3 3 3 3 3 3 4 5 4 8 14 14 9 7 8 10 6 5 5 2 2 3 2 2 3 4 4 6 9 11 13 15 15 16 18 19 19 19 15 11 9 6 4 3 2 1 3 4 6 6 6 5 6 7 5 5 7 5 6 7 9 9 9 10 12 14 18 11 5 18 27 15 -2 -6 1 2 -1 3 -0 -7 -0
5 5 4 4 3 3 2 2 3 3 3 4 6 9 13 12 10 13 13 9 4 3 6 5 1 3 4 2 2 2 2 6 8 8 11 14 14 16 19 18 19 20 17 13 10 7 6 4 -0 2 4 1 1 4 6 7 6 6 7 7 5 5 5 4 4 5 6 8 10 9 11 12 14 17 8 9 24 11 -14 -11 3 8 7 7 5 -3 -2 7
4 4 3 3 3 3 3 3 4 5 6 9 11 13 16 11 4 6 10 9 6 2 2 4 2 0 3 5 6 6 6 9 11 13 17 19 19 21 21 19 16 13 8 4 2 3 3 1 1 4 6 3 3 3 3 4 4 6 7 4 7 11 8 6 8 8 8 9 8 9 12 10 10 11 6 14 13 -13 -17 3 8 4 5 7 6 3 5 5
3 3 3 3 3 4 6 7 10 11 12 13 10 10 10 5 3 5 7 4 5 4 1 2 4 2 5 9 9 11 14 17 21 23 24 23 20 17 13 9 6 2 1 1 -0 1 3 2 3 5 6 5 6 5 5 6 8 9 7 8 13 13 7 9 12 11 10 10 6 10 12 7 8 6 3 10 1 -13 4 15 5 3 4 5 9 8 6 5
3 3 3 5 7 9 11 12 13 12 12 9 5 7 6 5 7 5 3 2 1 4 4 4 7 8 11 15 17 21 24 24 24 20 17 13 8 6 3 1 2 0 1 3 2 5 8 5 5 8 7 7 8 7 8 9 9 9 8 10 12 9 6 8 9 8 10 11 10 11 8 4 6 2 -1 6 0 -2 11 9 3 6 3 5 10 6 6 7
4 4 5 8 10 12 12 11 11 8 8 7 3 5 4 4 6 2 3 5 2 5 10 9 12 16 20 25 25 24 21 16 13 9 6 4 1 2 3 0 3 4 2 3 4 7 9 6 7 10 7 6 8 5 6 8 8 8 9 8 7 7 6 5 6 9 8 8 10 9 4 1 3 2 2 6 3 2 5 2 3 5 3 8 11 8 10 9
7 7 9 11 10 11 11 9 8 6 8 8 4 4 3 1 4 3 5 8 7 11 16 17 21 23 23 22 15 11 9 5 3 1 1 2 0 2 4 2 3 4 2 4 4 5 8 8 7 8 7 6 7 6 7 9 8 8 8 8 6 7 7 6 7 10 8 6 7 6 5 4 4 4 2 1 1 1 1 0 1 3 8 15 16 15 14 11
8 10 10 11 9 9 10 10 8 5 3 3 2 2 3 2 5 8 11 14 17 21 23 23 22 17 12 9 5 3 1 -0 2 2 1 2 3 3 4 4 3 4 3 3 4 4 7 10 8 7 8 8 7 7 7 7 8 9 10 9 6 6 9 8 8 10 8 5 5 5 6 6 5 5 3 0 1 1 1 4 7 10 15 16 14 15 14 13
8 11 11 10 9 8 11 10 8 5 -0 -1 -0 1 6 9 13 18 21 23 23 21 18 14 10 7 3 1 1 2 2 2 3 5 4 3 4 3 3 4 3 4 4 3 5 4 4 8 9 9 10 9 7 5 5 6 9 10 8 6 5 8 9 8 8 10 7 4 5 6 7 6 4 5 6 3 2 4 5 7 10 12 15 17 16 17 16 14
9 11 10 11 10 6 6 5 4 4 1 0 3 7 16 22 24 24 22 19 15 10 7 4 3 4 3 2 3 4 6 6 3 4 4 2 4 3 1 4 4 3 3 4 5 5 4 6 9 10 11 8 5 4 5 8 7 7 5 3 6 8 6 4 5 7 6 4 6 5 2 5 5 5 7 4 3 7 8 10 15 18 22 23 18 13 10 9
10 12 10 10 7 2 3 3 1 1 2 7 16 21 24 23 19 15 11 8 6 3 2 2 3 4 5 7 5 2 4 4 1 3 3 1 4 3 1 4 5 3 5 6 5 6 5 5 8 11 10 6 6 7 7 8 7 7 7 6 8 7 4 5 5 4 3 2 10 10 -3 -3 7 7 4 3 6 12 16 19 22 23 22 16 9 8 9 8
9 10 8 8 4 2 5 2 1 5 12 19 24 22 17 12 9 7 6 4 3 4 5 5 6 3 3 6 2 -1 2 2 0 3 3 2 4 5 4 4 5 5 7 7 6 6 6 6 8 12 11 8 6 5 5 5 6 7 9 9 8 5 5 8 5 4 2 -0 14 15 -9 -10 7 7 2 9 16 20 21 21 20 21 17 6 2 5 5 3
7 6 5 4 2 3 4 3 8 18 22 21 17 12 7 5 5 3 4 5 4 4 4 4 7 3 -0 4 3 -0 2 2 1 3 5 4 4 8 7 5 6 8 7 7 7 7 7 7 9 11 10 7 4 4 6 7 6 8 9 7 5 6 7 6 4 4 3 -0 9 10 -6 -5 9 8 9 19 20 16 17 17 14 11 6 2 3 7 7 6
2 3 4 3 2 4 8 11 18 21 17 11 7 7 5 4 5 4 3 5 5 5 1 -2 4 4 0 3 4 1 3 4 4 5 7 6 6 9 8 5 7 8 7 8 7 7 9 9 9 10 7 0 -1 2 3 4 5 8 7 3 4 6 3 2 1 -0 1 3 6 6 -0 1 9 11 14 18 15 14 19 20 18 16 12 10 10 8 4 -3
2 3 2 1 3 9 14 17 18 13 8 6 4 6 5 3 5 7 4 2 2 5 3 -2 1 4 2 3 5 4 4 5 5 7 8 8 8 10 8 6 8 8 8 7 6 9 11 9 8 10 11 10 9 10 7 4 6 8 6 3 5 6 1 1 2 -0 3 6 3 4 2 1 8 11 12 17 18 21 25 20 12 8 1 -5 -5 -2 1 2
4 4 3 4 8 14 16 14 11 6 5 6 4 5 6 4 3 3 4 3 0 2 4 2 2 3 3 4 5 5 6 7 8 9 9 9 9 9 8 8 8 7 7 6 6 9 9 8 6 6 11 15 14 14 11 8 7 6 5 5 6 7 4 5 6 3 6 7 3 6 5 2 10 16 20 28 25 17 11 -1 -8 -4 2 11 20 22 19 18
2 3 4 9 12 15 13 7 4 5 5 6 5 3 4 4 3 1 1 4 2 0 2 4 3 3 4 5 5 7 7 8 9 10 10 9 9 8 8 8 7 6 7 6 7 9 8 6 2 1 7 8 4 6 6 6 4 2 5 7 7 6 4 5 6 3 6 8 4 5 4 8 23 29 27 23 11 3 3 3 11 22 25 27 25 17 13 18
1 4 6 13 16 13 8 4 3 5 6 6 5 3 3 3 3 2 -0 -0 1 0 1 4 5 5 6 6 7 9 9 9 10 10 10 8 9 9 8 8 7 5 7 7 8 9 8 4 0 1 6 6 3 5 6 4 2 2 7 8 6 5 5 6 6 5 8 6 3 10 17 24 30 24 14 9 5 9 18 22 25 21 15 17 21 27 34 39
4 7 9 16 17 9 3 2 3 5 5 6 4 3 2 -0 -1 1 -0 -1 2 3 4 5 6 7 8 7 8 9 9 9 9 9 9 8 9 9 7 6 5 6 8 8 8 8 5 3 1 2 4 4 3 4 4 3 3 5 7 5 4 6 8 8 8 8 7 5 12 24 23 22 22 11 6 13 18 23 26 24 20 19 28 38 42 42 41 39
8 9 10 17 16 6 1 1 4 5 4 3 2 0 -1 -2 -2 1 2 3 5 6 7 8 7 7 8 7 8 9 8 8 8 8 8 8 8 7 6 5 6 8 8 7 7 6 3 2 3 3 5 5 3 2 4 4 5 6 5 4 6 7 7 8 8 7 6 12 23 22 8 9 18 11 10 19 25 27 26 24 29 38 44 42 35 33 35 35
11 8 12 19 13 4 -0 -0 3 6 3 0 -1 -2 -2 0 2 4 6 6 8 8 8 8 8 7 8 8 9 10 9 8 8 8 9 9 8 6 5 6 7 8 7 6 7 6 3 4 4 5 7 7 3 2 3 4 5 4 3 5 6 5 6 8 6 7 13 17 16 9 2 9 17 16 18 24 27 28 29 34 44 48 42 33 30 32 30 25
10 8 15 19 11 3 -1 -1 2 4 3 0 -1 -1 1 3 4 7 8 7 8 10 9 9 9 8 9 10 10 10 9 8 8 9 10 9 8 6 6 7 8 7 6 6 6 4 3 5 6 6 8 9 7 5 3 4 5 4 4 5 5 5 8 8 6 11 19 16 6 5 11 13 17 24 27 28 33 36 39 46 47 40 30 23 21 20 14 11
8 12 18 16 9 4 0 -0 2 4 3 0 -0 1 3 4 6 8 8 7 9 11 10 10 10 9 10 11 10 9 8 8 8 9 10 8 7 7 7 7 7 6 6 6 5 4 3 6 8 7 7 9 8 5 4 5 6 6 7 7 6 8 8 5 6 11 17 12 3 4 12 14 22 31 30 32 40 40 40 40 29 21 19 15 12 11 8 6
Height
5779 5780 5782 5783 5785 5786 5787 5789 5790 5791 5792 5794 5795 5796 5796 5797 5798 5798 5798 5799 5799 5799 5799 5798 5798 5798 5797 5797 5797 5797 5796 5796 5796 5795 5795 5795 5795 5795 5795 5794 5794 5794 5793 5793 5793 5792 5792 5791 5791 5790 5790 5789 5789 5788 5788 5787 5786 5786 5785 5784 5783 5783 5782 5781 5780 5779 5778 5777 5776 5775 5773 5772 5771 5769 5768 5766 5764 5763 5761 5759 5758 5757 5754 5752 5751 5749 5748 5746
5778 5780 5781 5782 5784 5786 5787 5788 5789 5791 5792 5793 5794 5795 5796 5796 5797 5797 5797 5798 5798 5798 5798 5797 5797 5797 5797 5796 5796 5796 5796 5795 5795 5795 5795 5795 5795 5794 5794 5794 5794 5793 5793 5793 5792 5792 5791 5791 5791 5790 5790 5789 5789 5788 5787 5787 5786 5785 5784 5783 5782 5782 5781 5780 5779 5778 5777 5776 5774 5773 5772 5770 5769 5767 5766 5764 5762 5760 5759 5757 5756 5754 5751 5750 5748 5747 5745 5743
5777 5779 5780 5782 5783 5785 5786 5787 5789 5790 5791 5793 5794 5794 5795 5795 5796 5796 5796 5797 5797 5797 5797 5796 5796 5796 5796 5796 5796 5795 5795 5795 5795 5795 5795 5795 5794 5794 5794 5793 5793 5793 5792 5792 5792 5792 5791 5791 5790 5790 5789 5789 5788 5788 5787 5786 5785 5785 5784 5783 5782 5781 5779 5778 5778 5776 5775 5774 5772 5771 5770 5768 5766 5765 5763 5761 5760 5757 5756 5754 5753 5752 5749 5747 5746 5744 5742 5740
5776 5778 5779 5781 5783 5784 5785 5787 5788 5790 5791 5792 5793 5793 5794 5794 5795 5795 5795 5796 5796 5796 5796 5796 5795 5795 5795 5795 5795 5795 5795 5795 5795 5795 5795 5795 5794 5794 5794 5793 5793 5793 5793 5792 5792 5792 5791 5791 5790 5790 5789 5789 5788 5787 5787 5786 5785 5783 5782 5782 5780 5779 5778 5777 5776 5775 5773 5772 5770 5769 5767 5766 5764 5762 5760 5759 5758 5755 5753 5751 5750 5748 5746 5744 5742 5741 5739 5736
5775 5777 5778 5780 5782 5783 5785 5786 5788 5789 5790 5791 5792 5792 5793 5793 5794 5794 5795 5795 5795 5795 5795 5795 5795 5795 5795 5795 5795 5795 5795 5795 5795 5795 5795 5795 5794 5794 5794 5793 5793 5793 5793 5792 5792 5792 5791 5791 5790 5790 5789 5788 5788 5787 5786 5785 5784 5782 5781 5780 5779 5778 5777 5775 5774 5773 5771 5770 5768 5767 5765 5763 5762 5759 5757 5755 5755 5753 5750 5748 5746 5744 5742 5740 5738 5737 5735 5733
5774 5776 5778 5779 5781 5782 5784 5785 5787 5788 5789 5790 5791 5791 5792 5793 5793 5794 5794 5794 5795 5795 5795 5795 5795 5795 5795 5795 5795 5795 5795 5796 5795 5795 5795 5795 5795 5794 5794 5794 5794 5793 5793 5793 5792 5792 5791 5791 5790 5789 5789 5788 5787 5786 5785 5784 5783 5781 5780 5779 5778 5776 5775 5773 5772 5771 5769 5768 5766 5764 5762 5760 5759 5756 5753 5752 5751 5749 5746 5744 5742 5740 5738 5736 5734 5732 5731 5729
5773 5775 5777 5778 5780 5782 5783 5785 5786 5787 5788 5789 5790 5791 5792 5792 5793 5793 5794 5794 5794 5794 5794 5795 5795 5795 5795 5795 5796 5796 5796 5796 5796 5796 5796 5795 5795 5795 5795 5794 5794 5794 5793 5793 5792 5792 5791 5790 5790 5789 5788 5787 5786 5785 5784 5782 5781 5780 5779 5777 5776 5774 5773 5771 5770 5768 5767 5765 5763 5762 5759 5757 5755 5753 5750 5748 5747 5746 5743 5741 5738 5736 5733 5731 5730 5727 5726 5724
5772 5774 5776 5777 5779 5781 5783 5784 5786 5787 5788 5789 5790 5791 5791 5792 5793 5793 5793 5794 5794 5794 5794 5795 5795 5795 5795 5796 5796 5796 5796 5796 5796 5796 5796 5796 5796 5796 5795 5795 5795 5794 5794 5793 5792 5792 5791 5790 5789 5788 5787 5786 5785 5784 5782 5781 5780 5779 5777 5776 5774 5772 5771 5769 5767 5766 5764 5762 5761 5759 5756 5753 5752 5750 5747 5744 5744 5742 5740 5737 5734 5732 5729 5726 5725 5723 5721 5719
5771 5773 5775 5777 5779 5780 5782 5783 5785 5786 5787 5789 5790 5791 5791 5792 5793 5793 5793 5793 5794 5794 5795 5795 5795 5796 5796 5797 5797 5797 5797 5797 5797 5797 5797 5797 5796 5796 5796 5795 5795 5794 5794 5793 5792 5791 5790 5789 5788 5787 5786 5785 5784 5783 5782 5780 5779 5778 5776 5774 5772 5770 5769 5767 5765 5763 5761 5759 5758 5755 5752 5750 5747 5746 5743 5741 5739 5738 5736 5733 5730 5727 5725 5722 5720 5718 5716 5714
5770 5772 5774 5776 5778 5780 5781 5783 5784 5786 5787 5789 5790 5791 5792 5792 5793 5793 5793 5794 5794 5795 5795 5796 5796 5797 5797 5797 5798 5798 5798 5798 5798 5798 5798 5797 5797 5797 5796 5795 5795 5794 5793 5792 5791 5790 5789 5788 5787 5786 5785 5784 5783 5782 5781 5779 5778 5776 5774 5772 5770 5768 5767 5765 5762 5760 5758 5756 5754 5752 5749 5746 5743 5741 5740 5738 5735 5734 5732 5728 5725 5722 5721 5718 5715 5713 5710 5709
5770 5772 5774 5776 5778 5779 5781 5783 5784 5786 5788 5789 5790 5791 5792 5793 5793 5794 5794 5795 5795 5796 5796 5797 5797 5798 5798 5798 5798 5799 5799 5799 5798 5798 5798 5798 5797 5797 5796 5795 5794 5793 5792 5791 5791 5790 5789 5788 5787 5786 5785 5784 5782 5781 5780 5778 5776 5775 5773 5771 5768 5766 5764 5762 5760 5757 5755 5752 5750 5749 5746 5742 5740 5737 5735 5735 5732 5730 5727 5723 5720 5717 5715 5713 5710 5707 5705 5703
5770 5772 5774 5776 5778 5779 5781 5783 5785 5787 5788 5789 5791 5792 5792 5793 5794 5794 5795 5796 5796 5797 5797 5798 5798 5799 5799 5799 5799 5799 5799 5799 5799 5799 5798 5798 5797 5796 5796 5795 5794 5793 5792 5791 5790 5789 5788 5787 5786 5785 5784 5783 5781 5780 5778 5777 5775 5773 5771 5769 5766 5763 5761 5760 5757 5754 5751 5749 5747 5746 5744 5739 5736 5734 5731 5730 5728 5725 5721 5718 5714 5711 5709 5707 5704 5702 5699 5696
5770 5772 5774 5776 5778 5780 5782 5784 5786 5787 5789 5790 5791 5792 5793 5794 5795 5796 5796 5797 5798 5798 5798 5799 5799 5799 5800 5800 5800 5800 5800 5799 5799 5799 5798 5798 5797 5797 5796 5795 5794 5793 5792 5791 5790 5789 5788 5787 5786 5784 5783 5781 5780 5778 5777 5775 5773 5771 5769 5767 5764 5761 5758 5756 5754 5751 5748 5745 5743 5742 5741 5737 5733 5730 5728 5726 5723 5720 5716 5712 5709 5706 5704 5701 5699 5697 5694 5690
5771 5773 5775 5777 5779 5781 5783 5785 5787 5788 5790 5791 5792 5793 5794 5795 5796 5797 5798 5799 5799 5799 5799 5800 5800 5800 5800 5800 5800 5800 5800 5800 5799 5799 5798 5798 5797 5797 5796 5795 5794 5793 5792 5791 5790 5789 5788 5786 5785 5783 5782 5780 5778 5777 5775 5773 5771 5768 5766 5764 5762 5759 5756 5753 5751 5748 5744 5741 5739 5737 5736 5734 5730 5726 5724 5722 5719 5716 5712 5708 5705 5702 5700 5697 5694 5691 5688 5684
5773 5775 5777 5779 5781 5783 5784 5786 5788 5789 5791 5792 5794 5795 5796 5797 5798 5799 5799 5800 5800 5800 5800 5801 5801 5801 5801 5801 5801 5801 5801 5801 5800 5800 5799 5798 5797 5797 5796 5795 5794 5793 5792 5791 5789 5788 5787 5785 5784 5782 5780 5778 5776 5774 5772 5770 5768 5766 5764 5761 5759 5757 5753 5750 5748 5745 5741 5737 5735 5734 5732 5729 5726 5722 5719 5716 5714 5712 5708 5705 5701 5698 5695 5692 5689 5686 5682 5678
5775 5777 5779 5781 5783 5784 5786 5788 5790 5792 5793 5795 5796 5797 5798 5799 5799 5800 5800 5801 5801 5801 5802 5802 5802 5802 5803 5803 5802 5802 5802 5801 5801 5800 5799 5798 5797 5796 5795 5795 5794 5793 5791 5790 5789 5787 5785 5783 5782 5780 5778 5776 5774 5772 5770 5767 5765 5763 5761 5759 5756 5753 5751 5747 5745 5741 5737 5734 5731 5729 5727 5724 5721 5719 5715 5711 5708 5705 5703 5699 5696 5693 5690 5687 5684 5680 5677 5673
5778 5780 5781 5783 5785 5787 5789 5790 5792 5794 5795 5796 5797 5798 5799 5800 5800 5801 5802 5802 5802 5803 5803 5803 5804 5804 5804 5803 5803 5803 5803 5802 5801 5800 5799 5798 5797 5796 5795 5794 5793 5792 5790 5789 5787 5785 5783 5781 5780 5778 5776 5774 5772 5770 5768 5766 5764 5761 5759 5756 5752 5749 5747 5744 5741 5738 5733 5730 5728 5725 5722 5719 5716 5714 5710 5706 5703 5699 5695 5693 5690 5688 5685 5682 5679 5676 5673 5670
5781 5782 5784 5786 5788 5789 5791 5793 5794 5796 5797 5798 5799 5800 5801 5802 5802 5803 5803 5804 5804 5805 5805 5805 5805 5805 5805 5804 5804 5804 5803 5802 5801 5800 5799 5798 5797 5796 5795 5793 5792 5790 5789 5787 5786 5783 5782 5780 5778 5776 5774 5772 5770 5768 5766 5764 5761 5758 5755 5752 5749 5745 5742 5739 5737 5734 5730 5725 5723 5721 5717 5714 5711 5708 5705 5701 5697 5693 5689 5687 5684 5682 5679 5676 5674 5671 5668 5666
5783 5785 5787 5788 5790 5792 5793 5795 5796 5798 5799 5800 5801 5802 5803 5804 5805 5805 5806 5806 5806 5806 5806 5806 5806 5806 5805 5805 5804 5804 5803 5802 5801 5800 5799 5797 5796 5795 5794 5792 5790 5789 5787 5786 5784 5782 5781 5779 5776 5774 5773 5771 5769 5766 5763 5760 5757 5754 5750 5747 5745 5741 5737 5734 5732 5730 5726 5722 5718 5715 5712 5709 5706 5702 5698 5695 5692 5688 5685 5682 5679 5677 5674 5671 5668 5666 5663 5660
5787 5788 5790 5791 5793 5795 5796 5798 5799 5800 5801 5802 5803 5804 5805 5806 5807 5807 5807 5807 5807 5807 5807 5807 5807 5806 5806 5805 5805 5804 5803 5802 5801 5799 5798 5797 5795 5794 5793 5791 5790 5788 5786 5785 5783 5781 5779 5777 5775 5773 5771 5768 5765 5762 5759 5756 5753 5750 5747 5743 5741 5738 5734 5730 5728 5725 5722 5718 5714 5710 5707 5704 5701 5698 5694 5691 5688 5685 5682 5678 5676 5673 5670 5667 5664 5660 5657 5654
5790 5792 5793 5795 5796 5798 5799 5801 5802 5803 5804 5805 5806 5807 5807 5808 5808 5809 5809 5808 5808 5809 5808 5808 5807 5807 5806 5806 5805 5804 5803 5801 5800 5799 5797 5796 5795 5794 5792 5790 5789 5787 5786 5784 5782 5780 5777 5775 5773 5770 5768 5764 5761 5759 5756 5753 5750 5747 5744 5741 5737 5735 5732 5727 5723 5721 5718 5715 5711 5707 5703 5700 5697 5695 5691 5687 5685 5682 5679 5676 5673 5670 5667 5663 5659 5656 5652 5649
5794 5796 5797 5799 5800 5801 5803 5804 5805 5806 5807 5808 5809 5809 5809 5810 5810 5810 5809 5810 5810 5810 5809 5808 5808 5807 5806 5806 5804 5803 5802 5801 5799 5798 5797 5796 5794 5793 5791 5789 5788 5786 5785 5783 5780 5778 5775 5773 5771 5768 5765 5762 5759 5756 5753 5750 5747 5744 5741 5738 5735 5732 5731 5727 5722 5717 5715 5713 5710 5706 5702 5698 5695 5692 5688 5685 5682 5679 5676 5673 5670 5667 5663 5660 5656 5652 5649 5646
5798 5800 5801 5802 5803 5805 5806 5807 5808 5809 5810 5811 5811 5811 5811 5811 5811 5810 5811 5811 5811 5810 5810 5809 5808 5807 5806 5805 5804 5803 5802 5800 5799 5798 5796 5795 5794 5792 5790 5789 5787 5785 5783 5781 5778 5776 5774 5771 5768 5765 5762 5759 5756 5753 5750 5747 5744 5742 5739 5736 5733 5729 5726 5725 5722 5717 5712 5709 5707 5705 5701 5697 5692 5690 5686 5682 5679 5676 5672 5670 5667 5664 5660 5656 5652 5648 5645 5642
5802 5803 5805 5806 5807 5808 5809 5810 5810 5811 5811 5812 5812 5813 5813 5812 5812 5812 5812 5812 5812 5811 5810 5809 5808 5807 5806 5805 5804 5803 5802 5800 5799 5797 5796 5794 5793 5791 5789 5788 5786 5783 5781 5779 5777 5774 5771 5768 5765 5763 5760 5757 5754 5751 5749 5746 5743 5740 5737 5734 5731 5727 5723 5721 5719 5715 5711 5706 5704 5702 5701 5697 5689 5685 5683 5679 5675 5672 5668 5665 5662 5659 5657 5652 5648 5644 5641 5638
5806 5807 5808 5809 5810 5811 5811 5812 5812 5812 5813 5813 5813 5814 5814 5814 5813 5813 5813 5813 5812 5811 5810 5809 5808 5807 5806 5805 5804 5803 5801 5800 5799 5798 5796 5794 5792 5790 5788 5787 5784 5782 5780 5777 5774 5772 5769 5766 5763 5761 5758 5755 5752 5750 5747 5745 5742 5739 5736 5732 5729 5726 5722 5719 5715 5713 5709 5705 5701 5698 5696 5696 5689 5681 5679 5676 5671 5668 5664 5660 5657 5654 5651 5647 5643 5640 5636 5633
5809 5810 5811 5812 5812 5813 5813 5813 5813 5814 5814 5815 5815 5815 5815 5815 5815 5814 5814 5813 5812 5811 5810 5809 5808 5807 5806 5805 5804 5803 5801 5800 5799 5797 5795 5793 5791 5789 5787 5785 5783 5780 5778 5775 5772 5770 5767 5764 5761 5758 5756 5753 5751 5748 5746 5743 5740 5737 5733 5730 5726 5723 5720 5717 5713 5709 5706 5702 5698 5694 5690 5690 5687 5679 5676 5673 5667 5664 5660 5656 5653 5649 5646 5642 5637 5634 5631 5627
5812 5813 5813 5814 5814 5814 5815 5815 5815 5816 5816 5816 5816 5816 5816 5816 5815 5815 5814 5814 5813 5812 5811 5810 5808 5807 5806 5805 5803 5802 5801 5799 5797 5795 5794 5792 5790 5788 5786 5783 5781 5778 5776 5773 5771 5768 5765 5762 5759 5757 5754 5752 5750 5747 5744 5740 5737 5734 5731 5728 5724 5721 5717 5714 5711 5707 5704 5699 5695 5692 5687 5685 5682 5675 5671 5669 5664 5660 5656 5651 5647 5644 5641 5637 5633 5629 5625 5620
5815 5815 5816 5816 5816 5816 5817 5817 5817 5817 5817 5817 5817 5817 5817 5816 5816 5815 5814 5814 5813 5812 5811 5810 5809 5807 5806 5805 5803 5801 5800 5798 5796 5795 5793 5791 5789 5786 5784 5782 5779 5777 5774 5772 5769 5766 5764 5761 5758 5756 5753 5750 5748 5745 5741 5738 5735 5731 5728 5725 5722 5719 5715 5711 5708 5704 5701 5697 5692 5688 5684 5680 5677 5671 5666 5664 5660 5656 5652 5647 5642 5639 5635 5631 5627 5622 5617 5613
5817 5818 5818 5818 5818 5818 5819 5819 5819 5819 5819 5819 5818 5818 5817 5817 5816 5816 5815 5814 5813 5812 5811 5809 5808 5807 5805 5804 5802 5801 5799 5797 5796 5794 5792 5789 5787 5785 5782 5779 5777 5775 5773 5771 5768 5765 5763 5760 5758 5755 5752 5749 5745 5742 5739 5735 5732 5728 5725 5722 5719 5715 5712 5708 5705 5702 5699 5695 5689 5685 5679 5674 5672 5667 5661 5657 5652 5648 5646 5643 5639 5634 5629 5624 5619 5614 5608 5606
5820 5820 5820 5821 5821 5821 5821 5821 5821 5821 5820 5820 5819 5819 5818 5817 5817 5816 5815 5814 5813 5812 5810 5809 5807 5806 5805 5803 5802 5800 5798 5796 5794 5792 5790 5787 5785 5782 5780 5777 5775 5773 5771 5769 5767 5764 5761 5759 5756 5753 5750 5746 5742 5738 5735 5731 5728 5725 5722 5719 5716 5713 5710 5706 5703 5699 5696 5692 5687 5681 5676 5670 5666 5663 5657 5650 5644 5640 5639 5638 5635 5629 5623 5617 5612 5606 5602 5601
5822 5823 5823 5823 5823 5823 5823 5822 5822 5822 5821 5821 5820 5820 5819 5818 5817 5816 5815 5814 5813 5812 5810 5809 5807 5806 5804 5803 5801 5800 5797 5796 5793 5791 5789 5786 5784 5782 5780 5778 5775 5773 5770 5768 5766 5763 5760 5757 5755 5752 5748 5744 5741 5736 5732 5728 5725 5721 5717 5714 5712 5709 5707 5704 5699 5695 5691 5687 5682 5677 5673 5669 5664 5659 5655 5646 5636 5633 5633 5631 5628 5623 5617 5612 5605 5599 5596 5594
5825 5825 5825 5825 5825 5825 5824 5824 5823 5823 5822 5821 5821 5820 5819 5818 5818 5817 5816 5814 5813 5811 5810 5809 5807 5806 5804 5803 5801 5799 5797 5795 5793 5791 5789 5787 5785 5782 5780 5778 5775 5773 5771 5768 5765 5762 5759 5756 5752 5749 5745 5742 5738 5734 5730 5726 5721 5717 5713 5708 5704 5700 5698 5695 5691 5688 5685 5683 5679 5674 5669 5666 5662 5656 5652 5642 5630 5628 5628 5624 5620 5617 5611 5606 5599 5592 5588 5584
5827 5827 5826 5826 5826 5826 5825 5825 5824 5823 5823 5822 5821 5820 5819 5819 5819 5817 5816 5814 5813 5811 5810 5809 5807 5805 5804 5802 5800 5798 5796 5794 5792 5790 5788 5785 5783 5781 5779 5776 5774 5771 5768 5765 5763 5760 5758 5755 5751 5746 5742 5738 5733 5729 5726 5722 5717 5712 5707 5702 5697 5692 5688 5685 5682 5679 5677 5677 5675 5671 5665 5661 5659 5652 5646 5639 5629 5626 5624 5618 5613 5609 5603 5598 5592 5585 5580 5575
5828 5828 5828 5828 5827 5827 5826 5825 5825 5824 5823 5822 5821 5820 5820 5820 5819 5817 5816 5815 5813 5811 5810 5808 5807 5805 5803 5801 5799 5797 5795 5793 5791 5789 5786 5784 5782 5780 5778 5775 5773 5770 5767 5764 5761 5758 5754 5751 5747 5743 5738 5733 5728 5724 5720 5717 5713 5708 5703 5698 5694 5689 5684 5680 5677 5673 5669 5668 5668 5667 5662 5657 5655 5648 5640 5635 5629 5624 5620 5614 5608 5602 5596 5590 5584 5578 5573 5567
5830 5829 5829 5828 5828 5827 5826 5826 5825 5825 5824 5823 5821 5820 5821 5820 5819 5817 5816 5814 5812 5811 5809 5808 5806 5804 5802 5801 5799 5797 5795 5793 5790 5788 5786 5784 5782 5780 5777 5775 5772 5769 5766 5763 5759 5755 5752 5748 5744 5739 5734 5730 5725 5721 5717 5714 5710 5705 5701 5696 5692 5688 5683 5679 5675 5670 5663 5659 5660 5660 5657 5653 5650 5644 5637 5631 5627 5622 5616 5611 5605 5599 5592 5586 5579 5572 5566 5560
5831 5830 5829 5829 5828 5828 5827 5826 5826 5825 5825 5823 5820 5821 5822 5821 5819 5817 5815 5814 5812 5810 5808 5807 5805 5803 5802 5800 5798 5796 5794 5792 5790 5788 5786 5784 5782 5779 5776 5773 5770 5767 5764 5760 5757 5754 5751 5747 5743 5738 5733 5728 5723 5719 5715 5711 5707 5702 5698 5694 5690 5686 5681 5674 5670 5666 5660 5653 5652 5652 5648 5645 5642 5638 5633 5628 5623 5618 5612 5606 5600 5593 5587 5579 5572 5565 5559 5552
5832 5831 5830 5829 5829 5828 5828 5827 5826 5825 5825 5822 5821 5823 5822 5820 5818 5816 5815 5813 5811 5810 5808 5806 5805 5803 5802 5800 5798 5796 5794 5792 5790 5788 5786 5783 5781 5778 5775 5772 5768 5765 5761 5758 5754 5751 5748 5746 5742 5737 5732 5727 5722 5718 5713 5709 5705 5700 5695 5690 5686 5682 5677 5670 5663 5659 5654 5647 5645 5645 5641 5636 5631 5626 5624 5620 5614 5608 5603 5597 5590 5584 5577 5569 5563 5556 5549 5543
5832 5832 5831 5830 5830 5829 5829 5828 5827 5827 5825 5822 5822 5823 5821 5819 5818 5816 5814 5813 5811 5809 5808 5807 5805 5804 5802 5800 5798 5796 5794 5792 5790 5787 5785 5782 5779 5776 5773 5770 5766 5763 5760 5756 5752 5748 5745 5743 5740 5734 5729 5724 5720 5716 5712 5708 5703 5698 5692 5687 5681 5676 5671 5667 5659 5652 5646 5639 5634 5635 5634 5629 5622 5616 5612 5607 5600 5594 5588 5583 5577 5571 5565 5557 5551 5545 5539 5533
5833 5833 5832 5832 5831 5830 5830 5829 5829 5827 5824 5822 5824 5823 5821 5819 5817 5815 5814 5813 5811 5810 5809 5807 5806 5804 5802 5800 5798 5796 5794 5792 5789 5786 5784 5781 5778 5774 5771 5768 5764 5761 5757 5753 5749 5745 5741 5739 5737 5733 5726 5722 5718 5715 5710 5706 5701 5696 5690 5683 5678 5673 5667 5663 5659 5651 5642 5633 5625 5621 5620 5618 5612 5606 5601 5594 5587 5581 5574 5568 5563 5557 5551 5544 5537 5532 5526 5521
5834 5834 5834 5833 5832 5831 5831 5830 5828 5825 5824 5824 5825 5822 5820 5819 5817 5816 5814 5813 5812 5811 5809 5807 5806 5804 5802 5800 5798 5796 5793 5791 5788 5785 5782 5779 5776 5773 5769 5766 5762 5758 5755 5751 5747 5743 5739 5736 5734 5731 5726 5720 5715 5711 5706 5701 5696 5691 5687 5681 5675 5670 5664 5659 5657 5652 5641 5629 5620 5611 5606 5606 5602 5595 5590 5583 5576 5570 5562 5555 5550 5544 5538 5532 5526 5520 5514 5509
5835 5836 5836 5834 5833 5833 5832 5830 5827 5826 5826 5826 5824 5822 5821 5819 5817 5816 5815 5814 5812 5811 5809 5807 5806 5804 5802 5799 5797 5795 5792 5789 5787 5783 5780 5777 5774 5770 5767 5763 5760 5756 5752 5749 5744 5740 5736 5733 5730 5728 5724 5718 5712 5708 5704 5699 5693 5687 5682 5677 5672 5666 5660 5653 5648 5647 5639 5628 5618 5606 5596 5595 5594 5586 5579 5572 5564 5558 5551 5543 5537 5533 5528 5522 5516 5509 5502 5497
5836 5837 5837 5835 5834 5834 5832 5829 5828 5828 5828 5826 5824 5823 5821 5820 5818 5817 5816 5814 5813 5811 5809 5807 5805 5803 5801 5799 5797 5794 5791 5788 5785 5782 5778 5775 5771 5768 5764 5761 5757 5753 5750 5746 5742 5738 5734 5730 5727 5725 5721 5715 5709 5705 5701 5696 5691 5686 5679 5673 5668 5661 5654 5645 5636 5632 5629 5623 5615 5604 5593 5589 5586 5577 5568 5561 5554 5549 5543 5535 5528 5523 5519 5512 5505 5498 5491 5485
5838 5838 5837 5836 5835 5834 5832 5830 5830 5829 5827 5826 5825 5823 5822 5820 5819 5818 5816 5814 5813 5811 5809 5807 5805 5803 5801 5798 5795 5793 5789 5786 5783 5780 5776 5773 5769 5765 5762 5758 5754 5751 5747 5743 5739 5734 5730 5725 5722 5722 5720 5715 5711 5706 5701 5695 5688 5681 5674 5666 5660 5654 5647 5640 5632 5623 5618 5615 5608 5597 5588 5584 5579 5569 5560 5553 5547 5543 5538 5531 5523 5515 5508 5501 5492 5485 5478 5472
5839 5839 5838 5837 5836 5834 5832 5831 5830 5829 5828 5827 5825 5824 5822 5821 5819 5818 5816 5815 5813 5811 5809 5807 5804 5802 5799 5797 5794 5791 5788 5784 5781 5777 5774 5770 5767 5763 5759 5756 5752 5748 5745 5741 5736 5731 5726 5720 5716 5713 5710 5706 5702 5699 5695 5691 5685 5678 5671 5663 5657 5652 5645 5639 5632 5622 5613 5609 5604 5591 5580 5578 5573 5562 5552 5545 5538 5533 5529 5523 5516 5506 5496 5488 5479 5471 5464 5458
5840 5839 5838 5837 5836 5834 5832 5832 5831 5830 5829 5827 5826 5824 5823 5821 5820 5818 5816 5814 5812 5810 5808 5806 5803 5801 5798 5795 5792 5789 5785 5782 5779 5775 5771 5768 5764 5760 5757 5753 5750 5746 5743 5739 5735 5730 5724 5719 5713 5708 5702 5693 5687 5684 5681 5678 5677 5675 5670 5661 5655 5649 5643 5635 5627 5617 5607 5601 5599 5587 5570 5564 5562 5551 5541 5534 5526 5519 5515 5510 5504 5494 5484 5475 5467 5458 5450 5443
5840 5840 5839 5837 5836 5834 5833 5833 5832 5830 5829 5828 5826 5825 5823 5821 5820 5818 5816 5814 5812 5809 5807 5804 5802 5799 5796 5792 5789 5786 5783 5780 5776 5773 5769 5765 5762 5758 5755 5751 5748 5744 5741 5737 5733 5729 5724 5718 5712 5707 5702 5694 5687 5683 5679 5673 5669 5667 5664 5658 5651 5644 5636 5627 5618 5609 5599 5589 5587 5581 5564 5550 5545 5537 5527 5521 5515 5507 5501 5493 5484 5476 5467 5460 5452 5443 5435 5429
5841 5840 5839 5837 5836 5835 5834 5833 5832 5831 5829 5828 5826 5825 5823 5821 5820 5818 5815 5813 5811 5808 5805 5803 5800 5797 5794 5791 5788 5784 5781 5777 5774 5770 5767 5763 5759 5756 5752 5749 5745 5742 5738 5734 5730 5726 5722 5717 5711 5706 5702 5695 5687 5682 5678 5672 5665 5661 5657 5652 5646 5640 5632 5624 5614 5602 5592 5579 5571 5568 5557 5540 5531 5525 5517 5510 5502 5493 5484 5474 5464 5456 5450 5444 5436 5427 5421 5415
5841 5840 5839 5838 5836 5835 5834 5834 5832 5831 5830 5828 5826 5825 5823 5821 5819 5817 5814 5812 5809 5807 5804 5801 5798 5795 5792 5789 5786 5783 5779 5775 5772 5769 5765 5761 5757 5754 5750 5746 5743 5739 5736 5732 5728 5723 5719 5714 5709 5704 5701 5694 5686 5680 5676 5669 5662 5656 5651 5645 5640 5634 5625 5618 5609 5597 5586 5573 5560 5552 5544 5533 5523 5516 5507 5498 5488 5477 5467 5459 5451 5444 5437 5430 5422 5415 5410 5404
5842 5840 5839 5838 5837 5835 5835 5834 5833 5831 5829 5828 5826 5824 5822 5820 5818 5816 5813 5811 5808 5805 5802 5799 5796 5793 5790 5787 5783 5780 5777 5774 5770 5767 5763 5759 5755 5751 5747 5744 5741 5737 5733 5729 5724 5720 5715 5711 5705 5701 5699 5693 5685 5678 5673 5666 5658 5652 5646 5639 5632 5626 5618 5610 5602 5590 5577 5566 5553 5541 5532 5524 5515 5505 5494 5485 5476 5465 5456 5448 5442 5435 5428 5420 5413 5407 5402 5397
5842 5840 5839 5838 5837 5836 5835 5834 5833 5831 5829 5827 5826 5824 5822 5819 5817 5814 5812 5809 5806 5803 5800 5797 5794 5791 5788 5784 5781 5777 5774 5770 5767 5763 5760 5756 5752 5749 5745 5741 5737 5734 5730 5725 5721 5716 5712 5707 5702 5697 5694 5691 5684 5677 5670 5663 5655 5647 5640 5633 5626 5620 5614 5606 5594 5579 5563 5551 5542 5532 5521 5511 5503 5494 5482 5473 5465 5455 5447 5441 5435 5429 5421 5413 5407 5402 5397 5393
5842 5840 5839 5838 5837 5836 5835 5834 5832 5831 5829 5827 5825 5823 5821 5819 5816 5813 5810 5808 5804 5801 5798 5795 5791 5788 5785 5782 5778 5774 5771 5767 5763 5760 5757 5753 5749 5746 5742 5738 5735 5731 5727 5721 5717 5712 5707 5702 5698 5693 5689 5685 5680 5674 5667 5659 5651 5643 5634 5627 5619 5611 5603 5594 5582 5567 5552 5539 5529 5521 5510 5498 5490 5481 5470 5463 5456 5448 5442 5436 5429 5422 5415 5409 5403 5398 5394 5389
5841 5840 5839 5838 5837 5836 5834 5833 5832 5830 5828 5826 5824 5822 5820 5817 5815 5812 5809 5806 5803 5799 5796 5792 5789 5786 5783 5779 5776 5772 5768 5765 5761 5757 5754 5750 5746 5742 5739 5735 5732 5728 5724 5719 5713 5708 5702 5697 5692 5686 5681 5677 5672 5667 5661 5652 5645 5637 5627 5616 5607 5597 5589 5582 5572 5559 5548 5535 5521 5510 5501 5490 5481 5471 5460 5453 5448 5441 5436 5431 5423 5415 5410 5406 5401 5396 5390 5386